Simultaneous Nadir Overpasses (SNOs) Predictions

Prediction of SNOs between GOES-17 and METOP-C Satellite Orbit:

Table of predicted SNOs for the next 14.0 days since TLE Epoch: 1/20/2024
Index Date Time (GOES-17) GOES-17 Lat,Lon METOP-C Lat,Lon Distance(km) Time Diff (sec)
1 01/21/2024 04:24:39 0.00,-104.66 0.09,-104.11 62.30 80
2 01/22/2024 16:43:30 -0.00,-104.67 0.88,-108.68 456.22 80
3 01/23/2024 16:25:30 0.00,-104.67 -0.20,-103.67 113.27 80
4 01/25/2024 04:44:30 -0.00,-104.66 -0.83,-108.27 411.12 80
5 01/26/2024 04:21:11 -0.01,-104.66 0.31,-103.28 158.29 80
6 01/27/2024 16:40:01 0.01,-104.67 0.70,-107.83 359.60 80
7 01/28/2024 16:22:01 0.02,-104.68 -0.39,-102.83 210.42 80
8 01/30/2024 04:41:01 -0.02,-104.68 -0.63,-107.42 312.95 80
9 01/31/2024 04:17:40 -0.02,-104.68 0.46,-102.42 256.79 80
10 02/01/2024 16:36:31 0.02,-104.69 0.53,-106.98 261.19 80
11 02/02/2024 16:18:30 0.02,-104.69 -0.56,-101.98 308.75 80
